Location: Baia de Cri?
(46.1667°N, 22.7167°E)
Time: 20:52:00
(UTC+00:00)

GRACE-FO 2 - Pass Details

Date: 15 January 2026
Orbit: 448 x 461 km, 89.0° (Epoch: 10 February)

Event Time Altitude Azimuth Distance (km) Brightness Sun altitude
Rises 05:24:04 0° 177° (S) 2,446 8.5 -7.6°
Reaches altitude 10° 05:26:06 10° 177° (S) 1,581 7.5 -7.3°
Maximum altitude 05:29:32 87° 89° (E) 461 4.5 -6.7°
Drops below altitude 10° 05:33:00 10° 0° (N) 1,603 7.0 -6.2°
Sets 05:35:04 0° 0° (N) 2,485 7.9 -5.9°
